Погода в Мужи

Погода в Мужи : погода сейчас, прогноз погоды и архив. Всё, что Вы хотите узнать о погоде в Мужи!

Хотите узнать прогноз погоды в Мужи? Тогда Вам сюда: Погода в Мужи

Поиск расширенной информации на нашем сайте:

Другие новости

Новости СМИ2

Главная страница сайта

Новости сайта

02.10.2013

Напоминаем, что на нашем новом сайте вы можете получить высокодетализированные прогнозы погоды по пунктам России, СНГ и мира (включающие важные для авиации метеовеличины, такие как направление и скорость ветра, видимость, явления погоды, количество и форма облачности, нижняя и верхняя граница облачности), а также ознакомиться с разнообразными материалами по авиационной метеорологии и подборкой полезных ссылок на эту тему.

Сайт Метеоцентр.Азия посвящён разработке технологий оптимизации авиаметеорологического обслуживания, включая проектирование и перспективное создание нескольких автоматизированных авиаметеорологических систем:
- система выпуска высокодетальных прогностических карт явлений погоды для нижнего воздушного пространства по России и ближнему зарубежью;
- система верификации прогнозов TAF (выпускаемых синоптиками официальных АМСГ РФ и ближнего зарубежья) и AUTOTAF (выпускаемых сайтом Метеоцентр.Азия) - выявление ошибок, онлайн-сопоставление с фактической погодой METAR, автоматическое внесение коррективов в прогнозы при резком отклонении фактической погоды от прогноза, подсчёт оправдываемости прогнозов по элементам и в целом;
- система обработки, анализа и отображения авиаметеорологической информации для применения провайдерами метеорологической информации.

Рекомендуем: Автоматический выключатель трехполюсный купить автоматический трехполюсный выключатель.

Погода в Мужи - сегодня

Время (UTC), дата Ветер
(°,м/с) 
Видим.   Явления Облачность Т
(°С)
Тd
(°С)
f(%) Тe
(°С)
Pmin
(гПа)
dP
(гПа)
Po
(мм)
O2
(г/м3)
Тmin Tmax R s Состояние
почвы
00 18.01.17 тихо ()   50000 м    8/0 средняя 
[Ac trans]
-19.7 -22.2 80 -20  1025.9  -0.4  767  335           
03 18.01.17 180 (Ю) 50000 м    8/0 средняя 
[Ac trans]
-17.2 -19.8 80 -20  1024.4  -1.5  766  331  -20.3      37  неравномерный
сухой снег
100% 
06 18.01.17 170 (Ю) 50000 м    3/0 верхняя 
[Ci fib]
-17.7 -20.4 79 -22  1023.1  -1.3  765  331           
09 18.01.17 180 (Ю) н/о    ясно 
-19.2 -21.9 79 -22  1021.7  -1.4  764  333           
12 18.01.17 180 (Ю) 50000 м    ясно 
-21.6 -24.7 76 -22  1020.6  -1.1  764  336           
15 18.01.17 160 (Ю) 50000 м    ясно 
-19 -21.8 78 -23  1019.1  -1.5  762  332    -16.4       
18 18.01.17 160 (Ю) 50000 м    ясно 
-19.7 -22.5 78 -22  1017.7  -1.4  761  332           
21 18.01.17 180 (Ю) 50000 м    ясно 
-18.1 -20.8 79 -22  1016  -1.7  760  330           
00 19.01.17 180 (Ю) 50000 м    ясно 
-18.3 -21 79 -21  1014.7  -1.2  759  329           
03 19.01.17 180 (Ю) 50000 м    4/0 верхняя 
[Ci fib]
-18.4 -21.1 79 -23  1012.4  -2.3  757  329  -20.2      37  неравномерный
сухой снег
100% 
06 19.01.17 180 (Ю) н/о  позёмок  9/0 средняя 
[Ac As]
-15.7 -18.1 82 -21  1009.6  -2.8  755  324           
09 19.01.17 180 (Ю) н/о    9/0 средняя, верхняя 
[Ac As|Ci fib]
-17 -19.5 81 -21  1007.3  -2.4  754  325           
12 19.01.17 170 (Ю) 50000 м    8/0 средняя 
[Ac As]
-17.6 -20.2 80 -20  1004.6  -2.7  752  325           
15 19.01.17 190 (Ю) 12000 м  слаб. снег  10/0 средняя 
[As op]
-18.2 -20.9 79 -21  1001.5  -3.1  749  325    -15.7  0.2     
18 19.01.17 190 (Ю) 40000 м  {снег}  10/0 средняя 
[Ac As]
-19 -21.8 78 -23  998.1  -3.3  747  325           
21 19.01.17 210 (ЮЗ) 19000 м  слаб. снег  10/0 средняя 
[As op]
-22 -25.1 76 -22  995  -3.2  744  328           
00 20.01.17 180 (Ю) 17000 м  слаб. снег  10/0 средняя 
[Ac As]
-15.6 -18 82 -20  991.3  -3.6  742  318           
03 20.01.17 180 (Ю) 6000 м  слаб. снег  10/0 средняя 
[As op]
-15.7 -18.1 82 -21  988.9  -2.4  740  318  -22.1    0.5  35  неравномерный
сухой снег
100% 
06 20.01.17 160 (Ю) 55000 м  позёмок{снег}  10/0 средняя, верхняя 
[As trans|Ci fib]
-16.1 -18.6 81 -20  987.8  -1.1  739  318           
09 20.01.17 170 (Ю) 60000 м    10/0 средняя, верхняя 
[As trans|Ci fib]
-16.9 -19.5 80 -21  987.3  -0.5  739  319           
12 20.01.17 200 (Ю) 50000 м    10/0 средняя, верхняя 
[As trans|Ci fib]
-16.9 -19.4 81 -19  986.8  -0.5  738  319           
15 20.01.17 180 (Ю) 12000 м  слаб. снег  10/0 средняя 
[As op]
-16.1 -18.6 81 -18  986.6  -0.2  738  317    -15.7  0.3     
18 20.01.17 190 (Ю) 15000 м  слаб. снег  10/0 средняя 
[As op]
-14.6 -16.9 83 -18  986.5  -0.1  738  316           
21 20.01.17 190 (Ю) 50000 м  {снег}  10/0 средняя 
[As op]
-14.1 -16.4 83 -14  985.8  -0.7  737  315           
00 21.01.17 160 (Ю) 6000 м  слаб. снег  10/0 средняя 
[As op]
-13.9 -15.9 85 -14  985.1  -0.7  737  314           
Время (UTC), дата Ветер
(°,м/с) 
Видим.   Явления Облачность Т
(°С)
Тd
(°С)
f(%) Тe
(°С)
Pmin
(гПа)
dP
(гПа)
Po
(мм)
O2
(г/м3)
Тmin Tmax R s Состояние
почвы

Для получения пояснительной информации подведите курсор к названию столбца.

ПОГОДА в Мужи - архив

Всё, что Вы хотите узнать о погоде в Мужи - удобно и подробно!

Выберите нужную дату (начиная с 1 января 2015* года) и нажмите кнопку "Найти".
Будут отображены архивные сводки погоды по пункту Мужи, начиная с указанной даты.


Отображать данные в формате CSV (для использования в таблицах Excel)


Внимание! Наш архив погоды предназначен исключительно для личного некоммерческого использования в познавательных целях. Если Вам необходимы официальные справки о состоянии погоды (для производственных, юридических, коммерческих и т.п. целей), обращайтесь в органы Росгидромета.

*Примечание: данная дата относится к архиву по метеостанциям СССР (Россия, СНГ, Балтия).
Архив по метеостанциям Зарубежной Европы и Азии (кроме Китая) хранится 10 дней, по другим регионам земного шара (Китай, Африка, Америка, Австралия, Океания) - 1 день.

Мужи - район местоположения метеостанции


Название, широта, долгота, высота метеостанции:
Мужи 65.4°ш. 64.7°д. 19 м над ур. моря [Российская Федерация]

Дополнительная информация

В oтличие oт бoльшинства пoгoдных сайтoв мы публикуем пoдрoбную метеoинфoрмацию в детальнoм прoфессиoнальнoм фoрмате.

Характеристики температуры и влажнoсти вoздуха измеряются на высoте 2 м в тени вдали oт зданий и деревьев.
Скoрoсть ветра измеряется на высoте 10 м (на урoвне рoста челoвека скoрoсть ветра ниже в 1.5-2 раза). Если метеoстанция нахoдится в гoрoде или в лесу, тo скoрoсть ветра занижена на 2-4 м/с пo сравнению с oткрытым местoм. Скoрoсть ветра над акватoриями крупных рек и oзёр, а также на вершинах хoлмoв на 2-5 м/с выше, чем в oбычных услoвиях.
Атмoсфернoе давление в разных тoчках местнoсти мoжет значительнo oтличаться oт давления на метеoстанции, в зависимoсти oт услoвий рельефа (при пoдъёме на 10 м давление пoнижается примернo на 1 мм рт.ст.).